Time,TemperatureF,DewpointF,PressureIn,WindDirection,WindDirectionDegrees,WindSpeedMPH,WindSpeedGustMPH,Humidity,HourlyPrecipIn,Conditions,Clouds,dailyrainin,SoftwareType,DateUTC
2013-03-18 00:00:00,50.7,45.1,29.92,South,191,5.0,12.0,81,0.00,,,0.00,Wunderground v.1.15,2013-03-18 04:00:00,
2013-03-18 00:01:00,50.7,45.1,29.92,SSE,148,5.0,12.0,81,0.00,,,0.00,Wunderground v.1.15,2013-03-18 04:01:00,
2013-03-18 00:02:00,50.6,45.0,29.92,SE,143,5.0,12.0,81,0.00,,,0.00,Wunderground v.1.15,2013-03-18 04:02:00,
2013-03-18 00:03:00,50.6,45.3,29.92,SSE,157,5.0,12.0,82,0.00,,,0.00,Wunderground v.1.15,2013-03-18 04:03:00,
2013-03-18 00:08:00,50.4,45.1,29.92,East,99,4.0,12.0,82,0.00,,,0.00,Wunderground v.1.15,2013-03-18 04:08:00,
2013-03-18 00:14:00,50.1,44.8,29.92,ENE,78,3.0,4.0,82,0.00,,,0.00,Wunderground v.1.15,2013-03-18 04:14:00,
2013-03-18 00:20:00,49.8,44.8,29.92,SE,132,2.0,2.0,83,0.00,,,0.00,Wunderground v.1.15,2013-03-18 04:20:00,
2013-03-18 00:25:00,49.6,44.6,29.92,ESE,108,3.0,8.0,83,0.00,,,0.00,Wunderground v.1.15,2013-03-18 04:25:00,
2013-03-18 00:32:00,49.4,44.8,29.93,ESE,120,3.0,3.0,84,0.00,,,0.00,Wunderground v.1.15,2013-03-18 04:32:00,
2013-03-18 00:37:00,49.2,44.6,29.93,WSW,238,3.0,5.0,84,0.00,,,0.00,Wunderground v.1.15,2013-03-18 04:37:00,
2013-03-18 00:42:00,49.0,44.4,29.93,SSW,205,4.0,4.0,84,0.00,,,0.00,Wunderground v.1.15,2013-03-18 04:42:00,
2013-03-18 00:47:00,48.8,44.2,29.93,SSE,155,4.0,13.0,84,0.00,,,0.00,Wunderground v.1.15,2013-03-18 04:47:00,
2013-03-18 00:53:00,48.7,44.1,29.93,East,98,3.0,13.0,84,0.00,,,0.00,Wunderground v.1.15,2013-03-18 04:53:00,
2013-03-18 00:58:00,48.5,44.2,29.93,SW,226,3.0,13.0,85,0.00,,,0.00,Wunderground v.1.15,2013-03-18 04:58:00,
2013-03-18 01:03:00,48.3,44.0,29.93,SSE,155,3.0,3.0,85,0.00,,,0.00,Wunderground v.1.15,2013-03-18 05:03:00,
2013-03-18 01:09:00,48.1,43.8,29.93,SW,229,3.0,4.0,85,0.00,,,0.00,Wunderground v.1.15,2013-03-18 05:09:00,
2013-03-18 01:15:00,48.0,43.7,29.93,SSE,150,4.0,6.0,85,0.00,,,0.00,Wunderground v.1.15,2013-03-18 05:15:00,
2013-03-18 01:21:00,47.9,43.6,29.93,South,172,5.0,6.0,85,0.00,,,0.00,Wunderground v.1.15,2013-03-18 05:21:00,
2013-03-18 01:27:00,47.8,43.5,29.93,SSW,201,6.0,9.0,85,0.00,,,0.00,Wunderground v.1.15,2013-03-18 05:27:00,
2013-03-18 01:33:00,47.6,43.3,29.94,South,175,6.0,7.0,85,0.00,,,0.00,Wunderground v.1.15,2013-03-18 05:33:00,
2013-03-18 01:38:00,47.5,43.2,29.94,South,184,4.0,7.0,85,0.00,,,0.00,Wunderground v.1.15,2013-03-18 05:38:00,
2013-03-18 01:44:00,47.3,43.0,29.94,SSE,148,4.0,11.0,85,0.00,,,0.00,Wunderground v.1.15,2013-03-18 05:44:00,
2013-03-18 01:49:00,47.2,42.9,29.94,SW,215,4.0,11.0,85,0.00,,,0.00,Wunderground v.1.15,2013-03-18 05:49:00,
2013-03-18 01:55:00,47.1,42.8,29.94,SE,146,4.0,7.0,85,0.00,,,0.00,Wunderground v.1.15,2013-03-18 05:55:00,
2013-03-18 02:00:00,47.1,43.1,29.94,SE,129,5.0,5.0,86,0.00,,,0.00,Wunderground v.1.15,2013-03-18 06:00:00,
2013-03-18 02:06:00,46.9,42.6,29.94,SSE,150,5.0,10.0,85,0.00,,,0.00,Wunderground v.1.15,2013-03-18 06:06:00,
2013-03-18 02:12:00,46.8,42.5,29.94,SSE,167,5.0,14.0,85,0.00,,,0.00,Wunderground v.1.15,2013-03-18 06:12:00,
2013-03-18 02:17:00,46.7,42.4,29.94,SSE,159,6.0,14.0,85,0.00,,,0.00,Wunderground v.1.15,2013-03-18 06:17:00,
2013-03-18 02:23:00,46.5,42.5,29.94,SE,140,5.0,8.0,86,0.00,,,0.00,Wunderground v.1.15,2013-03-18 06:23:00,
2013-03-18 02:28:00,46.4,42.4,29.94,South,171,5.0,8.0,86,0.00,,,0.00,Wunderground v.1.15,2013-03-18 06:28:00,
2013-03-18 02:34:00,46.2,42.2,29.94,South,184,5.0,6.0,86,0.00,,,0.00,Wunderground v.1.15,2013-03-18 06:34:00,
2013-03-18 02:39:00,46.1,42.1,29.94,South,169,4.0,10.0,86,0.00,,,0.00,Wunderground v.1.15,2013-03-18 06:39:00,
2013-03-18 02:45:00,46.0,42.0,29.95,SSW,203,3.0,10.0,86,0.00,,,0.00,Wunderground v.1.15,2013-03-18 06:45:00,
2013-03-18 02:50:00,45.9,41.9,29.95,SSE,163,3.0,10.0,86,0.00,,,0.00,Wunderground v.1.15,2013-03-18 06:50:00,
2013-03-18 02:55:00,45.8,41.9,29.95,SSW,206,4.0,10.0,86,0.00,,,0.00,Wunderground v.1.15,2013-03-18 06:55:00,
2013-03-18 03:00:00,45.6,41.7,29.95,SW,218,3.0,4.0,86,0.00,,,0.00,Wunderground v.1.15,2013-03-18 07:00:00,
2013-03-18 03:06:00,45.5,41.6,29.95,SSE,167,3.0,5.0,86,0.00,,,0.00,Wunderground v.1.15,2013-03-18 07:06:00,
2013-03-18 03:12:00,45.4,41.5,29.95,NW,304,2.0,2.0,86,0.00,,,0.00,Wunderground v.1.15,2013-03-18 07:12:00,
2013-03-18 03:18:00,45.3,41.7,29.95,SSW,203,1.0,2.0,87,0.00,,,0.00,Wunderground v.1.15,2013-03-18 07:18:00,
2013-03-18 03:24:00,45.2,41.6,29.95,NNW,328,1.0,2.0,87,0.00,,,0.00,Wunderground v.1.15,2013-03-18 07:24:00,
2013-03-18 03:30:00,45.1,41.5,29.95,South,170,1.0,4.0,87,0.00,,,0.00,Wunderground v.1.15,2013-03-18 07:30:00,
2013-03-18 03:36:00,45.1,42.0,29.95,WSW,252,0.0,10.0,87,0.00,,,0.00,weatherlink.com 1.10,2013-03-18 07:36:00,
2013-03-18 03:41:00,44.9,41.3,29.95,SW,224,2.0,6.0,87,0.00,,,0.00,Wunderground v.1.15,2013-03-18 07:41:00,
2013-03-18 03:46:00,44.9,41.3,29.95,East,94,1.0,6.0,87,0.00,,,0.00,Wunderground v.1.15,2013-03-18 07:46:00,
2013-03-18 03:52:00,44.8,41.2,29.95,West,264,1.0,6.0,87,0.00,,,0.00,Wunderground v.1.15,2013-03-18 07:52:00,
2013-03-18 03:58:00,44.7,41.1,29.95,SSW,205,2.0,6.0,87,0.00,,,0.00,Wunderground v.1.15,2013-03-18 07:58:00,
2013-03-18 04:03:00,44.6,41.0,29.95,SE,125,1.0,2.0,87,0.00,,,0.00,Wunderground v.1.15,2013-03-18 08:03:00,
2013-03-18 04:08:00,44.5,41.2,29.95,NNE,13,2.0,4.0,88,0.00,,,0.00,Wunderground v.1.15,2013-03-18 08:08:00,
2013-03-18 04:14:00,44.5,41.2,29.96,ESE,103,2.0,3.0,88,0.00,,,0.00,Wunderground v.1.15,2013-03-18 08:14:00,
2013-03-18 04:20:00,44.3,41.0,29.95,NW,326,2.0,2.0,88,0.00,,,0.00,Wunderground v.1.15,2013-03-18 08:20:00,
2013-03-18 04:25:00,44.2,40.9,29.95,ENE,74,2.0,4.0,88,0.00,,,0.00,Wunderground v.1.15,2013-03-18 08:25:00,
2013-03-18 04:30:00,44.1,40.8,29.95,SSE,158,2.0,2.0,88,0.00,,,0.00,Wunderground v.1.15,2013-03-18 08:30:00,
2013-03-18 04:35:00,44.0,40.7,29.95,West,280,2.0,4.0,88,0.00,,,0.00,Wunderground v.1.15,2013-03-18 08:35:00,
2013-03-18 04:40:00,43.8,40.5,29.96,WSW,248,2.0,4.0,88,0.00,,,0.00,Wunderground v.1.15,2013-03-18 08:40:00,
2013-03-18 04:46:00,43.8,40.8,29.96,East,85,2.0,4.0,89,0.00,,,0.00,Wunderground v.1.15,2013-03-18 08:46:00,
2013-03-18 04:52:00,43.7,40.7,29.96,WNW,283,1.0,4.0,89,0.00,,,0.00,Wunderground v.1.15,2013-03-18 08:52:00,
2013-03-18 04:58:00,43.7,40.7,29.95,North,9,1.0,4.0,89,0.00,,,0.00,Wunderground v.1.15,2013-03-18 08:58:00,
2013-03-18 05:04:00,43.7,40.7,29.95,NE,37,2.0,3.0,89,0.00,,,0.00,Wunderground v.1.15,2013-03-18 09:04:00,
2013-03-18 05:10:00,43.6,40.6,29.95,NNW,342,2.0,2.0,89,0.00,,,0.00,Wunderground v.1.15,2013-03-18 09:10:00,
2013-03-18 05:16:00,43.6,40.6,29.96,SSW,198,2.0,7.0,89,0.00,,,0.00,Wunderground v.1.15,2013-03-18 09:16:00,
2013-03-18 05:22:00,43.7,40.7,29.96,NNE,23,2.0,2.0,89,0.00,,,0.00,Wunderground v.1.15,2013-03-18 09:22:00,
2013-03-18 05:27:00,43.6,40.6,29.95,WNW,302,2.0,3.0,89,0.00,,,0.00,Wunderground v.1.15,2013-03-18 09:27:00,
2013-03-18 05:33:00,43.4,40.4,29.95,NNW,331,2.0,4.0,89,0.00,,,0.00,Wunderground v.1.15,2013-03-18 09:33:00,
2013-03-18 05:39:00,43.3,40.3,29.95,WSW,255,2.0,4.0,89,0.00,,,0.00,Wunderground v.1.15,2013-03-18 09:39:00,
2013-03-18 05:44:00,43.2,40.2,29.94,NW,315,2.0,4.0,89,0.00,,,0.00,Wunderground v.1.15,2013-03-18 09:44:00,
2013-03-18 05:49:00,43.0,40.3,29.94,WSW,246,3.0,8.0,90,0.00,,,0.00,Wunderground v.1.15,2013-03-18 09:49:00,
2013-03-18 05:54:00,42.8,40.1,29.94,NNW,328,3.0,7.0,90,0.00,,,0.00,Wunderground v.1.15,2013-03-18 09:54:00,
2013-03-18 06:00:00,42.7,40.0,29.95,SSW,200,3.0,3.0,90,0.00,,,0.00,Wunderground v.1.15,2013-03-18 10:00:00,
2013-03-18 06:06:00,42.6,39.9,29.95,SE,142,1.0,3.0,90,0.00,,,0.00,Wunderground v.1.15,2013-03-18 10:06:00,
2013-03-18 06:11:00,42.5,39.8,29.95,NW,312,1.0,2.0,90,0.00,,,0.00,Wunderground v.1.15,2013-03-18 10:11:00,
2013-03-18 06:17:00,42.3,39.9,29.95,NNW,340,2.0,4.0,91,0.00,,,0.00,Wunderground v.1.15,2013-03-18 10:17:00,
2013-03-18 06:22:00,42.1,40.0,29.95,SW,228,1.0,4.0,91,0.00,,,0.00,weatherlink.com 1.10,2013-03-18 10:22:00,
2013-03-18 06:28:00,42.1,39.7,29.94,SSW,199,2.0,3.0,91,0.00,,,0.00,Wunderground v.1.15,2013-03-18 10:28:00,
2013-03-18 06:35:00,41.9,39.5,29.94,SW,218,2.0,5.0,91,0.00,,,0.00,Wunderground v.1.15,2013-03-18 10:35:00,
2013-03-18 06:41:00,41.9,39.5,29.95,SSW,212,3.0,11.0,91,0.00,,,0.00,Wunderground v.1.15,2013-03-18 10:41:00,
2013-03-18 06:46:00,41.8,39.6,29.94,South,187,5.0,13.0,92,0.00,,,0.00,Wunderground v.1.15,2013-03-18 10:46:00,
2013-03-18 06:52:00,41.7,39.3,29.96,WSW,252,5.0,11.0,91,0.00,,,0.00,Wunderground v.1.15,2013-03-18 10:52:00,
2013-03-18 06:58:00,41.6,39.4,29.95,WSW,245,4.0,11.0,92,0.00,,,0.00,Wunderground v.1.15,2013-03-18 10:58:00,
2013-03-18 07:03:00,41.5,39.3,29.96,SW,221,4.0,4.0,92,0.00,,,0.00,Wunderground v.1.15,2013-03-18 11:03:00,
2013-03-18 07:09:00,41.4,39.3,29.96,WNW,287,5.0,6.0,92,0.00,,,0.00,Wunderground v.1.15,2013-03-18 11:09:00,
2013-03-18 07:15:00,41.4,39.3,29.96,SSW,205,6.0,12.0,92,0.00,,,0.00,Wunderground v.1.15,2013-03-18 11:15:00,
2013-03-18 07:21:00,41.4,39.3,29.96,South,191,7.0,12.0,92,0.00,,,0.00,Wunderground v.1.15,2013-03-18 11:21:00,
2013-03-18 07:27:00,41.4,39.3,29.96,SSW,201,5.0,12.0,92,0.00,,,0.00,Wunderground v.1.15,2013-03-18 11:27:00,
2013-03-18 07:32:00,41.5,39.3,29.96,SW,224,5.0,5.0,92,0.00,,,0.00,Wunderground v.1.15,2013-03-18 11:32:00,
2013-03-18 07:38:00,41.7,39.5,29.96,SE,130,6.0,10.0,92,0.00,,,0.00,Wunderground v.1.15,2013-03-18 11:38:00,
2013-03-18 07:43:00,41.9,39.7,29.96,South,186,7.0,12.0,92,0.00,,,0.00,Wunderground v.1.15,2013-03-18 11:43:00,
2013-03-18 07:48:00,42.0,39.6,29.96,SSE,154,7.0,14.0,91,0.00,,,0.00,Wunderground v.1.15,2013-03-18 11:48:00,
2013-03-18 07:54:00,42.1,39.7,29.96,SSW,193,7.0,12.0,91,0.00,,,0.00,Wunderground v.1.15,2013-03-18 11:54:00,
2013-03-18 08:00:00,41.9,39.5,29.97,SW,219,6.0,6.0,91,0.00,,,0.00,Wunderground v.1.15,2013-03-18 12:00:00,
2013-03-18 08:07:00,41.9,39.5,29.97,WSW,238,6.0,9.0,91,0.00,,,0.00,Wunderground v.1.15,2013-03-18 12:07:00,
2013-03-18 08:13:00,41.7,39.0,29.97,SSW,200,6.0,8.0,90,0.00,,,0.00,Wunderground v.1.15,2013-03-18 12:13:00,
2013-03-18 08:18:00,41.5,38.8,29.98,WSW,257,6.0,8.0,90,0.00,,,0.00,Wunderground v.1.15,2013-03-18 12:18:00,
2013-03-18 08:23:00,41.4,38.7,29.98,SSW,197,7.0,8.0,90,0.00,,,0.00,Wunderground v.1.15,2013-03-18 12:23:00,
2013-03-18 08:29:00,41.3,38.6,29.99,SE,146,6.0,16.0,90,0.00,,,0.00,Wunderground v.1.15,2013-03-18 12:29:00,
2013-03-18 08:34:00,41.2,38.8,29.97,SW,215,6.0,10.0,91,0.00,,,0.00,Wunderground v.1.15,2013-03-18 12:34:00,
2013-03-18 08:39:00,41.1,38.7,29.98,SSE,154,5.0,12.0,91,0.00,,,0.00,Wunderground v.1.15,2013-03-18 12:39:00,
2013-03-18 08:45:00,41.0,38.6,29.97,SE,144,5.0,14.0,91,0.00,,,0.00,Wunderground v.1.15,2013-03-18 12:45:00,
2013-03-18 08:50:00,41.0,38.6,29.97,South,187,7.0,7.0,91,0.00,,,0.00,Wunderground v.1.15,2013-03-18 12:50:00,
2013-03-18 08:56:00,41.2,38.8,29.98,SSE,161,6.0,14.0,91,0.00,,,0.00,Wunderground v.1.15,2013-03-18 12:56:00,
2013-03-18 09:02:00,41.2,38.8,29.98,SSE,150,5.0,10.0,91,0.00,,,0.00,Wunderground v.1.15,2013-03-18 13:02:00,
2013-03-18 09:08:00,41.1,38.4,29.98,SSE,157,5.0,10.0,90,0.00,,,0.00,Wunderground v.1.15,2013-03-18 13:08:00,
2013-03-18 09:13:00,41.3,38.9,29.98,SE,131,4.0,5.0,91,0.00,,,0.00,Wunderground v.1.15,2013-03-18 13:13:00,
2013-03-18 09:19:00,41.4,38.7,29.98,SSW,205,5.0,14.0,90,0.00,,,0.00,Wunderground v.1.15,2013-03-18 13:19:00,
2013-03-18 09:25:00,41.6,39.0,29.97,SSW,212,4.0,15.0,89,0.00,,,0.00,weatherlink.com 1.10,2013-03-18 13:25:00,
2013-03-18 09:30:00,41.8,38.8,29.97,SSE,149,6.0,6.0,89,0.00,,,0.00,Wunderground v.1.15,2013-03-18 13:30:00,
2013-03-18 09:36:00,41.7,38.4,29.97,South,176,6.0,15.0,88,0.00,,,0.00,Wunderground v.1.15,2013-03-18 13:36:00,
2013-03-18 09:42:00,41.5,38.2,29.98,SE,142,7.0,10.0,88,0.00,,,0.00,Wunderground v.1.15,2013-03-18 13:42:00,
2013-03-18 09:47:00,41.6,38.3,29.98,SSE,153,6.0,10.0,88,0.00,,,0.00,Wunderground v.1.15,2013-03-18 13:47:00,
2013-03-18 09:52:00,41.6,38.3,29.98,South,175,5.0,10.0,88,0.00,,,0.00,Wunderground v.1.15,2013-03-18 13:52:00,
2013-03-18 09:58:00,41.7,38.1,29.98,South,178,5.0,10.0,87,0.00,,,0.00,Wunderground v.1.15,2013-03-18 13:58:00,
2013-03-18 10:04:00,41.6,37.7,29.99,SSE,167,5.0,11.0,86,0.00,,,0.00,Wunderground v.1.15,2013-03-18 14:04:00,
2013-03-18 10:09:00,41.5,37.9,29.99,SSE,156,6.0,11.0,87,0.00,,,0.00,Wunderground v.1.15,2013-03-18 14:09:00,
2013-03-18 10:14:00,41.6,38.0,29.99,South,191,6.0,8.0,87,0.00,,,0.00,Wunderground v.1.15,2013-03-18 14:14:00,
2013-03-18 10:20:00,41.7,38.1,30.00,West,276,5.0,8.0,87,0.00,,,0.00,Wunderground v.1.15,2013-03-18 14:20:00,
2013-03-18 10:25:00,41.8,37.9,29.99,WSW,256,4.0,5.0,86,0.00,,,0.00,Wunderground v.1.15,2013-03-18 14:25:00,
2013-03-18 10:32:00,41.6,37.7,30.00,SSE,147,4.0,8.0,86,0.00,,,0.00,Wunderground v.1.15,2013-03-18 14:32:00,
2013-03-18 10:37:00,41.6,38.0,29.99,WNW,291,4.0,8.0,87,0.00,,,0.00,Wunderground v.1.15,2013-03-18 14:37:00,
2013-03-18 10:43:00,41.5,37.6,30.00,NW,307,2.0,17.0,86,0.00,,,0.00,Wunderground v.1.15,2013-03-18 14:43:00,
2013-03-18 10:49:00,41.8,37.9,29.99,WNW,302,2.0,17.0,86,0.00,,,0.00,Wunderground v.1.15,2013-03-18 14:49:00,
2013-03-18 10:54:00,41.8,37.9,29.99,West,259,3.0,17.0,86,0.00,,,0.00,Wunderground v.1.15,2013-03-18 14:54:00,
2013-03-18 11:00:00,41.9,38.0,29.99,West,271,4.0,4.0,86,0.00,,,0.00,Wunderground v.1.15,2013-03-18 15:00:00,
2013-03-18 11:06:00,42.2,38.0,29.99,South,191,3.0,6.0,85,0.00,,,0.00,Wunderground v.1.15,2013-03-18 15:06:00,
2013-03-18 11:13:00,41.5,37.6,29.98,South,180,4.0,6.0,86,0.00,,,0.00,Wunderground v.1.15,2013-03-18 15:13:00,
2013-03-18 11:18:00,41.5,37.9,29.98,SE,124,3.0,6.0,87,0.00,,,0.00,Wunderground v.1.15,2013-03-18 15:18:00,
2013-03-18 11:24:00,41.4,37.5,29.98,East,90,2.0,6.0,86,0.00,,,0.00,Wunderground v.1.15,2013-03-18 15:24:00,
2013-03-18 11:30:00,41.3,37.4,29.98,West,281,3.0,3.0,86,0.00,,,0.00,Wunderground v.1.15,2013-03-18 15:30:00,
2013-03-18 11:37:00,41.3,37.4,29.97,East,94,3.0,9.0,86,0.00,,,0.00,Wunderground v.1.15,2013-03-18 15:37:00,
2013-03-18 11:42:00,41.0,37.4,29.96,NW,311,4.0,11.0,87,0.00,,,0.00,Wunderground v.1.15,2013-03-18 15:42:00,
2013-03-18 11:48:00,41.3,37.7,29.97,South,180,4.0,11.0,87,0.00,,,0.00,Wunderground v.1.15,2013-03-18 15:48:00,
2013-03-18 11:53:00,41.5,37.9,29.97,SE,143,3.0,11.0,87,0.00,,,0.00,Wunderground v.1.15,2013-03-18 15:53:00,
2013-03-18 11:59:00,41.9,38.0,29.97,East,82,3.0,11.0,86,0.00,,,0.00,Wunderground v.1.15,2013-03-18 15:59:00,
2013-03-18 12:04:00,42.3,38.1,29.96,West,270,3.0,7.0,85,0.00,,,0.00,Wunderground v.1.15,2013-03-18 16:04:00,
2013-03-18 12:10:00,42.5,38.6,29.96,SSE,153,3.0,3.0,86,0.00,,,0.00,Wunderground v.1.15,2013-03-18 16:10:00,
2013-03-18 12:15:00,42.9,38.7,29.96,SSE,159,3.0,6.0,85,0.00,,,0.00,Wunderground v.1.15,2013-03-18 16:15:00,
2013-03-18 12:20:00,42.9,38.4,29.96,SE,143,3.0,8.0,84,0.00,,,0.00,Wunderground v.1.15,2013-03-18 16:20:00,
2013-03-18 12:26:00,42.6,37.8,29.96,SW,218,5.0,14.0,83,0.00,,,0.00,Wunderground v.1.15,2013-03-18 16:26:00,
2013-03-18 12:32:00,42.0,37.8,29.95,SSE,152,6.0,10.0,85,0.00,,,0.00,Wunderground v.1.15,2013-03-18 16:32:00,
2013-03-18 12:37:00,42.1,37.9,29.95,SSW,211,5.0,10.0,85,0.00,,,0.00,Wunderground v.1.15,2013-03-18 16:37:00,
2013-03-18 12:42:00,41.9,38.0,29.94,SE,132,4.0,5.0,86,0.00,,,0.00,Wunderground v.1.15,2013-03-18 16:42:00,
2013-03-18 12:48:00,41.9,38.0,29.95,SE,143,5.0,9.0,86,0.00,,,0.00,Wunderground v.1.15,2013-03-18 16:48:00,
2013-03-18 12:54:00,42.3,38.4,29.94,SW,218,6.0,6.0,86,0.00,,,0.00,Wunderground v.1.15,2013-03-18 16:54:00,
2013-03-18 12:59:00,42.2,38.0,29.93,SE,139,7.0,11.0,85,0.00,,,0.00,Wunderground v.1.15,2013-03-18 16:59:00,
2013-03-18 13:04:00,42.7,38.8,29.93,South,190,6.0,12.0,86,0.00,,,0.00,Wunderground v.1.15,2013-03-18 17:04:00,
2013-03-18 13:10:00,43.5,39.3,29.93,SSE,148,6.0,7.0,85,0.00,,,0.00,Wunderground v.1.15,2013-03-18 17:10:00,
2013-03-18 13:15:00,44.0,39.5,29.93,SE,142,7.0,10.0,84,0.00,,,0.00,Wunderground v.1.15,2013-03-18 17:15:00,
2013-03-18 13:21:00,43.9,39.1,29.93,SSE,147,7.0,8.0,83,0.00,,,0.00,Wunderground v.1.15,2013-03-18 17:21:00,
2013-03-18 13:26:00,44.0,39.2,29.93,SSE,165,7.0,12.0,83,0.00,,,0.00,Wunderground v.1.15,2013-03-18 17:26:00,
2013-03-18 13:32:00,44.8,40.0,29.92,SE,136,6.0,7.0,83,0.00,,,0.00,Wunderground v.1.15,2013-03-18 17:32:00,
2013-03-18 13:37:00,44.6,39.8,29.92,SSW,205,6.0,14.0,83,0.00,,,0.00,Wunderground v.1.15,2013-03-18 17:37:00,
2013-03-18 13:42:00,44.7,39.9,29.93,South,169,6.0,13.0,83,0.00,,,0.00,Wunderground v.1.15,2013-03-18 17:42:00,
2013-03-18 13:48:00,44.1,40.2,29.92,WSW,240,3.0,13.0,86,0.00,,,0.01,Wunderground v.1.15,2013-03-18 17:48:00,
2013-03-18 13:53:00,43.4,40.4,29.90,SW,228,3.0,13.0,89,0.25,,,0.03,Wunderground v.1.15,2013-03-18 17:53:00,
2013-03-18 13:59:00,43.4,40.7,29.91,SE,129,3.0,13.0,90,0.10,,,0.04,Wunderground v.1.15,2013-03-18 17:59:00,
2013-03-18 14:05:00,43.4,40.4,29.90,ESE,122,6.0,14.0,89,0.08,,,0.04,Wunderground v.1.15,2013-03-18 18:05:00,
2013-03-18 14:12:00,43.8,41.3,29.91,SSE,162,6.0,9.0,91,0.04,,,0.04,Wunderground v.1.15,2013-03-18 18:12:00,
2013-03-18 14:17:00,44.0,41.3,29.90,ESE,107,5.0,9.0,90,0.00,,,0.04,Wunderground v.1.15,2013-03-18 18:17:00,
2013-03-18 14:23:00,44.4,41.4,29.89,SSE,155,4.0,4.0,89,0.00,,,0.04,Wunderground v.1.15,2013-03-18 18:23:00,
2013-03-18 14:28:00,44.7,41.9,29.88,SSE,156,3.0,6.0,90,0.00,,,0.04,Wunderground v.1.15,2013-03-18 18:28:00,
2013-03-18 14:34:00,44.9,41.9,29.89,West,280,3.0,6.0,89,0.00,,,0.04,Wunderground v.1.15,2013-03-18 18:34:00,
2013-03-18 14:40:00,45.3,42.0,29.89,West,266,3.0,4.0,88,0.00,,,0.04,Wunderground v.1.15,2013-03-18 18:40:00,
2013-03-18 14:46:00,45.2,41.9,29.89,NW,308,3.0,6.0,88,0.00,,,0.04,Wunderground v.1.15,2013-03-18 18:46:00,
2013-03-18 14:52:00,45.5,42.2,29.88,West,277,3.0,6.0,88,0.00,,,0.04,Wunderground v.1.15,2013-03-18 18:52:00,
2013-03-18 14:57:00,46.1,43.0,29.87,ESE,123,2.0,6.0,89,0.00,,,0.04,Wunderground v.1.15,2013-03-18 18:57:00,
2013-03-18 15:02:00,46.3,42.3,29.86,South,187,3.0,8.0,86,0.00,,,0.04,Wunderground v.1.15,2013-03-18 19:02:00,
2013-03-18 15:08:00,45.8,41.9,29.86,WNW,283,4.0,8.0,86,0.00,,,0.04,Wunderground v.1.15,2013-03-18 19:08:00,
2013-03-18 15:13:00,46.0,42.0,29.87,SW,229,3.0,4.0,86,0.00,,,0.04,Wunderground v.1.15,2013-03-18 19:13:00,
2013-03-18 15:18:00,46.5,43.1,29.88,North,1,2.0,4.0,88,0.00,,,0.04,Wunderground v.1.15,2013-03-18 19:18:00,
2013-03-18 15:23:00,46.2,42.5,29.88,East,98,2.0,4.0,87,0.00,,,0.04,Wunderground v.1.15,2013-03-18 19:23:00,
2013-03-18 15:29:00,45.3,41.4,29.89,South,187,3.0,5.0,86,0.00,,,0.04,Wunderground v.1.15,2013-03-18 19:29:00,
2013-03-18 15:34:00,44.6,41.0,29.90,SSE,160,2.0,3.0,87,0.00,,,0.04,Wunderground v.1.15,2013-03-18 19:34:00,
2013-03-18 15:40:00,44.3,41.0,29.90,WNW,293,2.0,2.0,88,0.00,,,0.04,Wunderground v.1.15,2013-03-18 19:40:00,
2013-03-18 15:46:00,44.3,41.0,29.88,SW,218,2.0,7.0,88,0.00,,,0.04,Wunderground v.1.15,2013-03-18 19:46:00,
2013-03-18 15:51:00,44.2,41.2,29.86,South,177,4.0,5.0,89,0.00,,,0.04,Wunderground v.1.15,2013-03-18 19:51:00,
2013-03-18 15:57:00,44.3,41.6,29.86,SW,228,4.0,5.0,90,0.00,,,0.05,Wunderground v.1.15,2013-03-18 19:57:00,
2013-03-18 16:02:00,44.3,41.6,29.85,ESE,117,2.0,7.0,90,0.07,,,0.05,Wunderground v.1.15,2013-03-18 20:02:00,
2013-03-18 16:08:00,44.5,42.3,29.86,SE,126,2.0,7.0,92,0.07,,,0.06,Wunderground v.1.15,2013-03-18 20:08:00,
2013-03-18 16:14:00,44.7,42.5,29.86,NNE,20,1.0,4.0,92,0.05,,,0.06,Wunderground v.1.15,2013-03-18 20:14:00,
2013-03-18 16:19:00,44.8,42.6,29.86,SE,126,2.0,4.0,92,0.04,,,0.06,Wunderground v.1.15,2013-03-18 20:19:00,
2013-03-18 16:25:00,44.6,42.4,29.85,East,83,2.0,3.0,92,0.00,,,0.06,Wunderground v.1.15,2013-03-18 20:25:00,
2013-03-18 16:30:00,44.3,42.0,29.85,NW,315,2.0,8.0,91,0.02,,,0.06,weatherlink.com 1.10,2013-03-18 20:30:00,
2013-03-18 16:35:00,44.1,41.9,29.85,NNW,332,3.0,3.0,92,0.00,,,0.06,Wunderground v.1.15,2013-03-18 20:35:00,
2013-03-18 16:41:00,43.9,41.7,29.85,SSE,153,2.0,7.0,92,0.00,,,0.07,Wunderground v.1.15,2013-03-18 20:41:00,
2013-03-18 16:46:00,43.7,42.0,29.86,NW,311,1.0,6.0,92,0.03,,,0.07,weatherlink.com 1.10,2013-03-18 20:46:00,
2013-03-18 16:52:00,43.5,41.3,29.89,NNW,347,3.0,7.0,92,0.00,,,0.07,Wunderground v.1.15,2013-03-18 20:52:00,
2013-03-18 16:58:00,43.6,41.7,29.91,SE,142,2.0,7.0,93,1.05,,,0.13,Wunderground v.1.15,2013-03-18 20:58:00,
2013-03-18 17:03:00,43.4,41.5,29.89,SSE,167,2.0,2.0,93,0.38,,,0.18,Wunderground v.1.15,2013-03-18 21:03:00,
2013-03-18 17:09:00,43.4,41.8,29.92,NW,326,1.0,2.0,94,0.25,,,0.22,Wunderground v.1.15,2013-03-18 21:09:00,
2013-03-18 17:14:00,43.4,41.8,29.94,NNE,13,2.0,4.0,94,0.44,,,0.24,Wunderground v.1.15,2013-03-18 21:14:00,
2013-03-18 17:20:00,43.2,41.6,29.93,SSE,163,2.0,2.0,94,0.49,,,0.32,Wunderground v.1.15,2013-03-18 21:20:00,
2013-03-18 17:25:00,43.2,41.9,29.94,WSW,242,1.0,2.0,95,0.20,,,0.34,Wunderground v.1.15,2013-03-18 21:25:00,
2013-03-18 17:30:00,43.2,42.0,29.93,SSW,200,1.0,5.0,95,0.31,,,0.37,weatherlink.com 1.10,2013-03-18 21:30:00,
2013-03-18 17:36:00,43.6,42.3,29.92,WSW,242,3.0,4.0,95,0.28,,,0.40,Wunderground v.1.15,2013-03-18 21:36:00,
2013-03-18 17:42:00,43.9,42.8,29.95,NNE,16,2.0,5.0,96,0.20,,,0.42,Wunderground v.1.15,2013-03-18 21:42:00,
2013-03-18 17:48:00,43.7,42.4,29.94,NNE,12,1.0,5.0,95,0.13,,,0.43,Wunderground v.1.15,2013-03-18 21:48:00,
2013-03-18 17:54:00,43.5,42.2,29.95,NE,54,1.0,5.0,95,0.24,,,0.45,Wunderground v.1.15,2013-03-18 21:54:00,
2013-03-18 17:59:00,43.3,41.7,29.94,ENE,67,1.0,5.0,94,0.17,,,0.47,Wunderground v.1.15,2013-03-18 21:59:00,
2013-03-18 18:05:00,43.2,41.6,29.94,NW,314,1.0,3.0,94,0.19,,,0.49,Wunderground v.1.15,2013-03-18 22:05:00,
2013-03-18 18:10:00,43.1,41.5,29.95,SW,226,1.0,1.0,94,0.27,,,0.51,Wunderground v.1.15,2013-03-18 22:10:00,
2013-03-18 18:17:00,43.2,41.9,29.96,SW,226,0.0,1.0,95,0.22,,,0.53,Wunderground v.1.15,2013-03-18 22:17:00,
2013-03-18 18:23:00,43.3,42.0,29.94,SW,226,0.0,0.0,95,0.16,,,0.55,Wunderground v.1.15,2013-03-18 22:23:00,
2013-03-18 18:29:00,43.3,42.0,29.94,SW,227,0.0,0.0,95,0.18,,,0.57,Wunderground v.1.15,2013-03-18 22:29:00,
2013-03-18 18:35:00,43.3,42.0,29.94,SSW,198,0.0,1.0,95,0.11,,,0.58,Wunderground v.1.15,2013-03-18 22:35:00,
2013-03-18 18:40:00,43.4,42.1,29.95,SSE,162,0.0,1.0,95,0.17,,,0.59,Wunderground v.1.15,2013-03-18 22:40:00,
2013-03-18 18:45:00,43.4,42.1,29.94,SSE,162,0.0,6.0,95,0.12,,,0.60,Wunderground v.1.15,2013-03-18 22:45:00,
2013-03-18 18:51:00,43.5,42.2,29.94,SSE,162,0.0,6.0,95,0.06,,,0.61,Wunderground v.1.15,2013-03-18 22:51:00,
2013-03-18 18:57:00,43.5,42.2,29.95,SSE,162,0.0,6.0,95,0.06,,,0.61,Wunderground v.1.15,2013-03-18 22:57:00,
2013-03-18 19:03:00,43.6,42.3,29.95,SSE,162,0.0,1.0,95,0.16,,,0.63,Wunderground v.1.15,2013-03-18 23:03:00,
2013-03-18 19:09:00,43.7,42.4,29.95,SSE,162,0.0,1.0,95,0.21,,,0.65,Wunderground v.1.15,2013-03-18 23:09:00,
2013-03-18 19:14:00,43.8,42.7,29.95,South,173,1.0,1.0,96,0.30,,,0.67,Wunderground v.1.15,2013-03-18 23:14:00,
2013-03-18 19:20:00,44.1,43.0,29.93,SSE,149,1.0,2.0,96,0.34,,,0.71,Wunderground v.1.15,2013-03-18 23:20:00,
2013-03-18 19:25:00,44.3,43.2,29.92,SSW,199,1.0,1.0,96,0.16,,,0.72,Wunderground v.1.15,2013-03-18 23:25:00,
2013-03-18 19:31:00,44.5,43.4,29.93,SSW,200,0.0,1.0,96,0.08,,,0.72,Wunderground v.1.15,2013-03-18 23:31:00,
2013-03-18 19:36:00,44.5,43.4,29.92,SSW,200,0.0,1.0,96,0.05,,,0.72,Wunderground v.1.15,2013-03-18 23:36:00,
2013-03-18 19:42:00,44.6,43.5,29.91,SSW,200,1.0,1.0,96,0.04,,,0.73,Wunderground v.1.15,2013-03-18 23:42:00,
2013-03-18 19:48:00,44.9,44.0,29.91,SSW,200,0.0,1.0,96,0.13,,,0.73,weatherlink.com 1.10,2013-03-18 23:48:00,
2013-03-18 19:54:00,45.1,44.0,29.90,SSW,200,0.0,0.0,96,0.04,,,0.73,Wunderground v.1.15,2013-03-18 23:54:00,
2013-03-18 20:00:00,45.3,44.2,29.90,SSW,208,0.0,2.0,96,0.00,,,0.73,Wunderground v.1.15,2013-03-19 00:00:00,
2013-03-18 20:07:00,45.4,44.3,29.90,SSW,195,1.0,3.0,96,0.00,,,0.73,Wunderground v.1.15,2013-03-19 00:07:00,
2013-03-18 20:12:00,45.5,44.4,29.90,North,359,1.0,2.0,96,0.00,,,0.73,Wunderground v.1.15,2013-03-19 00:12:00,
2013-03-18 20:17:00,45.6,44.5,29.90,SW,215,1.0,2.0,96,0.00,,,0.74,Wunderground v.1.15,2013-03-19 00:17:00,
2013-03-18 20:23:00,45.7,44.4,29.89,SSE,158,1.0,3.0,95,0.00,,,0.74,Wunderground v.1.15,2013-03-19 00:23:00,
2013-03-18 20:28:00,45.7,44.4,29.85,SE,141,1.0,3.0,95,0.04,,,0.75,Wunderground v.1.15,2013-03-19 00:28:00,
2013-03-18 20:34:00,45.8,44.2,29.81,West,274,2.0,5.0,94,0.04,,,0.75,Wunderground v.1.15,2013-03-19 00:34:00,
2013-03-18 20:40:00,46.3,44.7,29.83,NW,325,3.0,3.0,94,0.04,,,0.75,Wunderground v.1.15,2013-03-19 00:40:00,
2013-03-18 20:45:00,46.5,44.9,29.83,NNE,32,2.0,3.0,94,0.00,,,0.75,Wunderground v.1.15,2013-03-19 00:45:00,
2013-03-18 20:51:00,46.7,44.8,29.85,NW,308,1.0,2.0,93,0.00,,,0.75,Wunderground v.1.15,2013-03-19 00:51:00,
2013-03-18 20:57:00,46.5,44.6,29.86,ESE,117,1.0,3.0,93,0.00,,,0.75,Wunderground v.1.15,2013-03-19 00:57:00,
2013-03-18 21:02:00,46.3,44.4,29.86,SSE,167,1.0,1.0,93,0.00,,,0.75,Wunderground v.1.15,2013-03-19 01:02:00,
2013-03-18 21:07:00,46.1,44.2,29.86,SSW,200,1.0,1.0,93,0.00,,,0.75,Wunderground v.1.15,2013-03-19 01:07:00,
2013-03-18 21:13:00,45.9,44.3,29.86,South,173,1.0,1.0,94,0.00,,,0.75,Wunderground v.1.15,2013-03-19 01:13:00,
2013-03-18 21:19:00,45.8,44.2,29.86,South,173,0.0,1.0,94,0.00,,,0.75,Wunderground v.1.15,2013-03-19 01:19:00,
2013-03-18 21:24:00,45.8,44.2,29.87,South,173,0.0,0.0,94,0.00,,,0.75,Wunderground v.1.15,2013-03-19 01:24:00,
2013-03-18 21:30:00,45.7,44.1,29.88,South,173,0.0,0.0,94,0.00,,,0.75,Wunderground v.1.15,2013-03-19 01:30:00,
2013-03-18 21:36:00,45.5,43.9,29.88,South,173,0.0,1.0,94,0.00,,,0.75,Wunderground v.1.15,2013-03-19 01:36:00,
2013-03-18 21:42:00,45.3,43.7,29.87,South,174,0.0,4.0,94,0.00,,,0.75,Wunderground v.1.15,2013-03-19 01:42:00,
2013-03-18 21:47:00,45.1,43.5,29.87,South,173,0.0,4.0,94,0.00,,,0.75,Wunderground v.1.15,2013-03-19 01:47:00,
2013-03-18 21:53:00,45.0,43.4,29.87,South,173,0.0,4.0,94,0.00,,,0.75,Wunderground v.1.15,2013-03-19 01:53:00,
2013-03-18 21:59:00,45.0,43.4,29.88,West,278,0.0,4.0,94,0.00,,,0.75,Wunderground v.1.15,2013-03-19 01:59:00,
2013-03-18 22:04:00,45.0,43.7,29.87,West,280,1.0,1.0,95,0.00,,,0.75,Wunderground v.1.15,2013-03-19 02:04:00,
2013-03-18 22:09:00,44.9,43.3,29.87,SSE,162,1.0,2.0,94,0.00,,,0.75,Wunderground v.1.15,2013-03-19 02:09:00,
2013-03-18 22:14:00,44.5,42.9,29.87,SSE,162,1.0,1.0,94,0.00,,,0.75,Wunderground v.1.15,2013-03-19 02:14:00,
2013-03-18 22:19:00,44.3,42.7,29.88,SSE,162,1.0,1.0,94,0.00,,,0.75,Wunderground v.1.15,2013-03-19 02:19:00,
2013-03-18 22:25:00,44.2,42.9,29.88,SSE,162,1.0,1.0,95,0.00,,,0.75,Wunderground v.1.15,2013-03-19 02:25:00,
2013-03-18 22:30:00,44.1,42.8,29.88,SSE,167,1.0,1.0,95,0.00,,,0.75,Wunderground v.1.15,2013-03-19 02:30:00,
2013-03-18 22:35:00,44.1,43.0,29.88,SSE,167,0.0,1.0,95,0.00,,,0.75,weatherlink.com 1.10,2013-03-19 02:35:00,
2013-03-18 22:41:00,44.1,42.8,29.88,SSE,167,0.0,1.0,95,0.00,,,0.75,Wunderground v.1.15,2013-03-19 02:41:00,
2013-03-18 22:47:00,44.2,42.9,29.87,SSE,166,0.0,1.0,95,0.00,,,0.75,Wunderground v.1.15,2013-03-19 02:47:00,
2013-03-18 22:52:00,44.2,42.9,29.88,SSE,166,0.0,1.0,95,0.00,,,0.75,Wunderground v.1.15,2013-03-19 02:52:00,
2013-03-18 22:57:00,44.2,42.9,29.88,SSE,167,0.0,1.0,95,0.00,,,0.75,Wunderground v.1.15,2013-03-19 02:57:00,
2013-03-18 23:02:00,44.1,42.8,29.88,SSE,167,0.0,0.0,95,0.00,,,0.75,Wunderground v.1.15,2013-03-19 03:02:00,
2013-03-18 23:07:00,43.9,42.6,29.89,SSE,167,0.0,0.0,95,0.00,,,0.75,Wunderground v.1.15,2013-03-19 03:07:00,
2013-03-18 23:12:00,43.8,42.5,29.89,SSE,166,0.0,0.0,95,0.00,,,0.75,Wunderground v.1.15,2013-03-19 03:12:00,
2013-03-18 23:18:00,43.8,42.7,29.88,SSE,166,0.0,0.0,96,0.00,,,0.75,Wunderground v.1.15,2013-03-19 03:18:00,
2013-03-18 23:23:00,43.8,42.7,29.89,SSW,203,0.0,0.0,96,0.00,,,0.75,Wunderground v.1.15,2013-03-19 03:23:00,
2013-03-18 23:29:00,43.7,42.6,29.89,South,176,0.0,1.0,96,0.00,,,0.75,Wunderground v.1.15,2013-03-19 03:29:00,
2013-03-18 23:34:00,43.5,42.4,29.89,SSW,194,1.0,1.0,96,0.00,,,0.75,Wunderground v.1.15,2013-03-19 03:34:00,
2013-03-18 23:40:00,43.3,42.2,29.89,SSW,194,1.0,1.0,96,0.00,,,0.75,Wunderground v.1.15,2013-03-19 03:40:00,
2013-03-18 23:46:00,43.3,42.2,29.90,SSW,195,1.0,1.0,96,0.00,,,0.75,Wunderground v.1.15,2013-03-19 03:46:00,
2013-03-18 23:51:00,43.5,43.0,29.90,SSW,194,0.0,1.0,96,0.00,,,0.75,weatherlink.com 1.10,2013-03-19 03:51:00,
2013-03-18 23:57:00,43.3,42.2,29.90,SSW,195,0.0,1.0,96,0.00,,,0.75,Wunderground v.1.15,2013-03-19 03:57:00,